#timestamp,LO_Frequency,Hit,StdDev 
1589619615.8,286046998.2,N
1589619635.6,286046999.1,N
1589619655.4,286046999.5,N
1589619675.3,286046997.4,N
1589619695.1,286046995.0,Y
1589619715.8,286046999.2,P
1589619735.7,286046996.7,P
1589619755.5,286046997.9,N
1589619775.4,286046997.3,Y
1589619795.2,286046996.9,P
1589619815.0,286047002.8,P
1589619815.9,286047002.8,N
1589619835.8,286047001.0,N
1589619855.6,286046998.1,N
1589619875.4,286046998.9,N
1589619895.3,286047000.9,N
1589619915.1,286047000.8,N
1589619935.9,286046998.1,N
1589619955.7,286046999.2,N
1589619975.5,286046997.6,N
1589619995.4,286046995.1,N
1589620015.2,286046997.0,N
1589620035.0,286046997.7,N
1589620035.9,286046997.7,N
1589620055.8,286046995.6,N
1589620075.6,286046995.2,N
1589620095.4,286046995.4,N
1589620115.3,286046997.2,N
1589620135.1,286046999.1,N
1589620155.9,286046999.6,N
1589620175.7,286046999.4,N
1589620195.5,286046999.3,N
1589620215.4,286046999.5,N
1589620235.2,286046996.6,N
1589620255.0,286046996.9,N
1589620255.9,286046996.9,N
1589620275.8,286046996.6,N
1589620295.6,286046997.5,N
1589620315.5,286046997.9,N
1589620335.3,286046996.7,N
1589620355.1,286046998.7,N
1589620375.9,286046998.6,N
1589620395.7,286046998.8,N
1589620415.5,286046998.2,N
1589620435.4,286047001.0,N
1589620455.2,286046998.5,N
1589620475.1,286046999.4,N
1589620476.0,286046999.4,N
1589620495.8,286047000.7,N
1589620515.6,286047000.4,N
1589620535.5,286047000.4,N
1589620555.3,286047000.0,N
1589620575.1,286046999.8,N
1589620595.9,286047000.1,N
1589620615.7,286047002.0,N
1589620635.6,286047000.9,N
1589620655.4,286046999.3,N
1589620675.2,286046999.0,N
1589620695.1,286046996.7,N
1589620696.0,286046996.7,N
1589620715.8,286046997.1,N
1589620735.6,286047000.9,N
1589620755.5,286047000.8,N
1589620775.3,286047000.9,N
1589620795.2,286046999.0,N
1589620815.9,286046997.2,N
1589620835.7,286046995.4,Y
1589620855.6,286046995.5,P
1589620875.4,286046995.5,N
1589620895.3,286046998.0,N
1589620915.1,286046996.8,N
1589620916.0,286046996.8,N
1589620935.8,286046996.8,N
1589620955.7,286046996.7,N
1589620975.5,286047000.7,N
1589620995.3,286047001.1,N
1589621015.2,286047000.0,N
1589621035.0,286046999.9,N
1589621035.9,286046999.9,N
1589621055.8,286047000.9,N
1589621075.6,286046998.4,N
1589621095.4,286046999.1,N
1589621115.3,286046998.2,N
1589621135.1,286046997.8,N
1589621155.9,286046996.7,N
1589621175.7,286046995.0,N
1589621195.5,286046995.6,N
1589621215.4,286046997.4,N
1589621235.2,286046998.4,N
1589621255.0,286046999.1,N
1589621255.9,286046999.1,N
1589621275.8,286046998.8,N
1589621295.6,286046999.2,N
1589621315.5,286046999.5,N
1589621335.3,286046997.0,N
1589621355.1,286046999.6,N
1589621375.9,286046996.5,N
1589621395.7,286046996.9,N
1589621415.5,286046999.1,N
1589621435.4,286046999.6,N
1589621455.2,286046996.6,N
1589621475.1,286046999.2,N
1589621476.0,286046999.2,N
1589621495.8,286046996.9,N
1589621515.6,286046998.9,N
1589621535.5,286046997.3,N
1589621555.3,286046997.9,N
1589621575.1,286046995.3,Y
1589621595.9,286047004.2,P
1589621615.7,286047003.0,N
1589621635.6,286047002.9,N
1589621655.4,286047001.4,N
1589621675.2,286047001.6,N
1589621695.1,286047001.7,N
1589621696.0,286047001.7,N
1589621715.8,286047000.2,N
1589621735.7,286046998.1,N
1589621755.5,286046999.2,N
1589621775.3,286046996.8,N
1589621795.2,286046999.2,N
1589621815.0,286046996.9,N
1589621815.9,286046996.9,N
1589621835.7,286046998.6,N
1589621855.6,286046998.5,N
1589621875.4,286046998.7,N
1589621895.3,286046998.1,N
1589621915.1,286047001.1,N
1589621916.0,286047001.1,N
1589621935.8,286046998.8,N
1589621955.7,286046996.8,N
1589621975.5,286046996.9,N
1589621995.4,286046999.0,N
1589622015.2,286046999.6,N
1589622035.0,286046998.9,N
1589622035.9,286046998.9,N
1589622055.8,286047001.0,N
1589622075.6,286046998.7,N
1589622095.4,286046998.3,N
1589622115.3,286046998.4,N
1589622135.1,286046998.4,N
1589622155.9,286046998.6,N
1589622175.7,286046998.5,N
1589622195.5,286046998.5,N
1589622215.4,286047000.3,N
1589622235.2,286046999.4,N
1589622255.0,286046996.5,N
1589622255.9,286046996.5,N
1589622275.8,286046998.0,N
1589622295.6,286046999.0,N
1589622315.5,286046996.7,N
1589622335.3,286046997.1,N
1589622355.1,286046995.2,Y
1589622375.9,286046995.7,P
1589622395.7,286046995.4,P
1589622415.5,286046994.9,P
1589622435.4,286046995.7,Y
1589622455.2,286046999.2,P
1589622475.1,286046998.7,N
1589622476.0,286046998.7,N
1589622495.8,286047001.2,N
1589622515.6,286047000.8,N
1589622535.5,286046998.4,N
1589622555.3,286046998.9,N
1589622575.1,286047001.5,N
1589622595.9,286047001.4,N
1589622615.7,286047001.4,N
1589622635.6,286047005.9,Y
1589622655.4,286047004.2,P
1589622675.2,286047004.1,N
1589622695.1,286047002.5,N
1589622696.0,286047002.5,N
1589622715.8,286047000.3,N
1589622735.6,286047001.0,N
1589622755.5,286046998.1,N
1589622775.3,286047000.3,N
1589622795.2,286047001.1,N
1589622815.9,286046999.1,N
1589622835.7,286046997.2,N
1589622855.6,286046999.6,N
1589622875.4,286046999.5,N
1589622895.2,286046999.1,N
1589622915.1,286046998.7,N
1589622916.0,286046998.7,N
1589622935.8,286046998.6,N
1589622955.7,286047000.9,N
1589622975.5,286046998.7,N
1589622995.3,286046998.3,N
1589623015.2,286046999.0,N
1589623035.0,286046998.2,N
1589623035.9,286046998.2,N
1589623055.7,286047000.2,N
1589623075.6,286047000.0,N
1589623095.4,286047002.4,N
1589623115.3,286047001.7,N
1589623135.1,286047002.4,N
1589623136.0,286047002.4,N
1589623155.8,286046998.1,N
1589623175.7,286047000.6,N
1589623195.5,286047001.2,N
